Regional Weather Roundup
Issued by NWS Upton, NY

Current Version | Previous Version | Graphics & Text | Print | Product List | Glossary Off
Versions: 1 2 3 4 5 6 7 8 9 10 11 12 13 14 15 16 17 18 19 20 21 22 23 24 25 26 27 28 29 30 31 32 33 34 35 36 37 38 39 40 41 42 43 44 45 46 47 48 49 50

000
ASUS41 KOKX 202105
RWROKX

REGIONAL WEATHER ROUNDUP
NATIONAL WEATHER SERVICE NEW YORK NY
400 PM EST SAT DEC 20 2014

NOTE: "FAIR" INDICATES FEW OR NO CLOUDS BELOW 12,000 FEET WITH NO
SIGNIFICANT WEATHER AND/OR OBSTRUCTIONS TO VISIBILITY.

NYZ071-072-176-178-NJZ106-104-202200-
NEW YORK CITY METRO AREA


CITY           SKY/WX    TMP DP  RH WIND       PRES   REMARKS
CENTRAL PARK   CLOUDY    33  19  56 VRB3      30.28R
LAGUARDIA APRT CLOUDY    33  21  61 NE6       30.27R WCI  28
KENNEDY INTL   CLOUDY    33  20  58 CALM      30.28S
NEWARK/LIBERTY CLOUDY    32  21  64 W6        30.27S WCI  26
BRNX BOT. GARD   N/A    N/A N/A N/A NW2       30.28R
TETERBORO      CLOUDY    34  20  56 NW3       30.26R
$$

NYZ177-179-078>081-202200-
LONG ISLAND NEW YORK

CITY           SKY/WX    TMP DP  RH WIND       PRES   REMARKS
FARMINGDALE    CLOUDY    32  21  64 SW3       30.27R
ISLIP          CLOUDY    33  22  63 N5        30.25R WCI  29
SHIRLEY        CLOUDY    32  24  72 NW5       30.27R WCI  27
WESTHAMPTON    CLOUDY    32  24  72 NW7       30.27S WCI  26
MONTAUK POINT    N/A     36  27  69 NW7       30.25S WCI  30
$$

NYZ052-065-067-202200-
HUDSON VALLEY

CITY           SKY/WX    TMP DP  RH WIND       PRES   REMARKS
WHITE PLAINS   CLOUDY    31  19  61 N3        30.24R
NEWBURGH       CLOUDY    28  21  74 VRB6      30.26  WCI  22
MONTGOMERY     CLOUDY    30  20  66 E5        30.25R WCI  25
POUGHKEEPSIE   CLOUDY    30  19  63 N6        30.27R WCI  24
ALBANY         MOCLDY    30  17  58 N3        30.29S
$$

NJZ001-105-106-008-010-013-015-019>022-104-202200-
NEW JERSEY

CITY           SKY/WX    TMP DP  RH WIND       PRES   REMARKS
NEWARK/LIBERTY CLOUDY    32  21  64 W6        30.27S WCI  26
TETERBORO      CLOUDY    34  20  56 NW3       30.26R
CALDWELL       CLOUDY    32  20  61 N3        30.27R
MORRISTOWN     CLOUDY    32  21  64 N5        30.27R WCI  27
SOMERVILLE     CLOUDY    33  20  58 N6        30.26R WCI  28
SUSSEX         CLOUDY    31  20  63 CALM      30.24S
ANDOVER          N/A     29  20  69 VRB3      30.25R
TRENTON        CLOUDY    33  20  58 N3        30.26R
MILLVILLE      MOCLDY    34  23  64 NW5       30.27R WCI  30
ATLANTIC CITY  CLOUDY    34  22  61 N7        30.26R WCI  28
WRIGHTSTOWN    CLOUDY    32  21  63 NW7       30.24S WCI  26
TOMS RIVER     CLOUDY    34  21  60 N5        30.26S WCI  30
BELMAR         CLOUDY    32  19  59 N7        30.26R WCI  26
$$

PAZ047>061-062-071-202200-
EASTERN PENNSYLVANIA

CITY           SKY/WX    TMP DP  RH WIND       PRES   REMARKS
PHILADELPHIA   CLOUDY    35  21  56 NW5       30.28R WCI  31
ALLENTOWN      CLOUDY    34  21  59 CALM      30.25S
SCRANTON       CLOUDY    31  20  63 N3        30.21S
$$

CTZ002-004>006-009-010-012-RIZ004-006-007-MAZ004-011-015-202200-
SOUTHERN NEW ENGLAND
 IN CT

CITY           SKY/WX    TMP DP  RH WIND       PRES   REMARKS
BRADLEY INTL   MOCLDY    32  19  58 CALM      30.25S
HARTFORD       CLOUDY    30  20  66 VRB6      30.27S WCI  24
DANBURY        CLOUDY    30  19  63 VRB5      30.25S WCI  25
WTRBRY/OXFORD  CLOUDY    28  18  64 NE6       30.23S WCI  22
BRIDGEPORT     CLOUDY    33  23  66 NE5       30.26S WCI  29
MERIDEN        CLOUDY    30  22  72 NW6       30.26S WCI  24
NEW HAVEN      CLOUDY    34  22  61 N6        30.26S WCI  29
CHESTER        CLOUDY    30  25  80 NW5       30.24S WCI  25
GROTON         CLOUDY    33  25  72 N5        30.24S WCI  29
WILLIMANTIC    CLOUDY    35  23  61 N7        30.25S WCI  29

 IN RI

CITY           SKY/WX    TMP DP  RH WIND       PRES   REMARKS
PROVIDENCE     CLOUDY    35  25  66 N9        30.26R WCI  28
BLOCK ISLAND   CLOUDY    36  27  69 N8        30.22S WCI  29
WESTERLY       CLOUDY    35  25  66 N6        30.24S WCI  30

 IN MA

CITY           SKY/WX    TMP DP  RH WIND       PRES   REMARKS
BOSTON         CLOUDY    34  25  69 N10       30.28R WCI  26
WORCESTER      CLOUDY    30  22  72 VRB5      30.22S WCI  25
WESTFIELD      MOCLDY    33  20  58 NW3       30.25F
PROVINCETOWN   CLOUDY    39  34  81 NE13      30.24S WCI  32
NANTUCKET      CLOUDY    40  35  83 NW9       30.22S WCI  34
$$

ANZ330-335-338-340-345-350-353-355-202200-
COASTAL MARINE OBSERVATIONS


STATION/POSITION TIME  SKY/WX   TEMP    WIND        PRES    VSBY  WAVE
                                AIR SEA DIR/SP/G                  HT/PER
                 (UTC)          (F)     (DEG/KT/KT) (MB)    (MI)  (FT/S)
NY HARB ENTRANCE 2100            33 46  330/ 10/ 14 1025.1          1/11
4S FIRE IS       2100               45                N/A           1/10
20S FIRE ISLAND  2000            35 49              1024.8          1/11
23SW MTP         2100                                 N/A           2/ 3
HUDSON CANYON    2100            38 54  340/ 12/ 14 1023.3          2/ 4
EXECUTION ROCKS  2100            34 41  340/  6/  8   N/A
WESTERN LI SOUND 2100            33     350/  4/  8   N/A           0
CENTRAL LI SOUND 2000            33 44   10/  6/  8   N/A           0
EASTERN LI SOUND NOT AVBL
ROBBINS REEF     2100            32        CALM     1023.8
$$


>>>>>>>>>>>>>>>>>>>>>>>>>>>> KEY <<<<<<<<<<<<<<<<<<<<<<<<<<<
>                                                          <
>     SKY/WX - SKY CONDITION/PRESENT WEATHER               <
>     TMP    - TEMPERATURE IN FAHRENHEIT                   <
>     DP     - DEWPOINT IN FAHRENHEIT                      <
>     RH     - RELATIVE HUMIDITY IN PERCENT                <
>     WIND   - DIRECTION AND SPEED IN MPH                  <
>     PRES   - MEAN SEA LEVEL PRESSURE IN INCHES OF HG     <
>     WCI    - WIND CHILL INDEX                            <
>     VSB    - VISIBILITY IN MILES                         <
>     HX     - HEAT INDEX                                  <
>     TC     - TEMPERATURE IN CELSIUS                      <
>     VRB    - VARIABLE WIND DIRECTION                     <
>                                                          <
>>>>>>>>>>>>>>>>>>>>>>>>>>>> KEY <<<<<<<<<<<<<<<<<<<<<<<<<<<





USA.gov is the U.S. government's official web portal to all federal, state and local government web resources and services.